Flag for Canada Weather past 2 weeks in Saguenay, Quebec, Canada

Now
16 °F

Cold.


Feels Like: 16 °F
Forecast: 8 / 21 °F
Wind: 1 mph from Northwest

Location: Jonquiere Airport

Current Time: Dec 22, 2014 at 1:40:28 PM

Latest Report: Dec 22, 2014 at 1:00 PM


Visibility: N/A

Pressure: 30.45 "Hg

Humidity: 67%

Dew point: 7 °F

Location of SaguenayLocation

Historic Weather in Saguenay — Graph

°F

Saguenay temperature yesterday

Maximum temperature yesterday: 16 °F (at 3:00 PM)
Minimum temperature yesterday: 1 °F (at 12:00 AM)
Average temperature yesterday: 10 °F

Past Weeks' High & Low Weather Summary

 TemperatureHumidityPressure
High35 °F (Dec 11, 2:00 PM)100% (Dec 12, 5:00 PM)30.87 "Hg (Dec 12, 5:00 PM)
Low-13 °F (Dec 8, 1:00 AM)50% (Dec 8, 1:00 PM)29.74 "Hg (Dec 11, 1:00 PM)
Average21 °F85%30.16 "Hg
* Reported Dec 7 12:00 Noon — Dec 22 12:00 Noon, Saguenay, Weather by CustomWeather, © 2014

Note: Actual official high and low records may vary slightly from our data, if they occured in-between our weather recording intervals... More about our weather records

Advertising

Saguenay weather history for previous 24 hours

 ConditionsComfort  
Time TempWeatherWind HumidityBarometerVisibility
12:00 PM
Dec 22
16 °FCold.No wind64%30.47 "HgN/A
11:00 AM13 °FCold.1 mph72%30.49 "HgN/A
10:00 AM9 °FFrigid.5 mph80%30.51 "HgN/A
9:00 AM6 °FFrigid.2 mph86%30.50 "HgN/A
8:00 AM4 °FFrigid.1 mph88%30.49 "HgN/A
7:00 AM3 °FFrigid.5 mph88%30.47 "HgN/A
6:00 AM6 °FFrigid.1 mph89%30.47 "HgN/A
5:00 AM8 °FFrigid.6 mph87%30.47 "HgN/A
4:00 AM9 °FFrigid.5 mph88%30.47 "HgN/A
3:00 AM10 °FCold.5 mph89%30.47 "HgN/A
2:00 AM12 °FCold.3 mph89%30.46 "HgN/A
1:00 AM11 °FCold.2 mph90%30.44 "HgN/A
12:00 AM12 °FCold.1 mph89%30.44 "HgN/A
11:00 PM
Dec 21
12 °FCold.No wind89%30.44 "HgN/A
10:00 PM13 °FCold.2 mph88%30.43 "HgN/A
9:00 PM13 °FCold.1 mph88%30.44 "HgN/A
8:00 PM15 °FCold.1 mph81%30.44 "HgN/A
7:00 PM14 °FCold.1 mph85%30.43 "HgN/A
6:00 PM15 °FCold.3 mph84%30.42 "HgN/A
5:00 PM14 °FCold.2 mph83%30.42 "HgN/A
4:00 PM15 °FCold.6 mph83%30.40 "HgN/A
3:00 PM16 °FCold.3 mph79%30.40 "HgN/A
2:00 PM15 °FCold.1 mph76%30.40 "HgN/A
1:00 PM15 °FCold.2 mph76%30.40 "HgN/A
Weather by CustomWeather, © 2014

See weather overviewHow to use our weather pages